sat.trackr.live / text

‹ back to catalog

STARLINK-34123

NORAD 63891 · 2025-095B

PAYLOAD ACTIVE UNKNOWN

§ Identity

Operator
Country
US
Launch date
2025-05-10
Launch site
AFETR
Launch vehicle
Mass (kg)
RCS (m²)

Purposes: comms

External: N2YO · Heavens-Above · Gunter

§ Orbital elements

Epoch: 2026-05-25T04:35:14.301600Z

Period
94.27 min
Inclination
42.9989°
Eccentricity
0.0001659
Mean motion
15.27585323 rev/d
Perigee alt
481.9 km
Apogee alt
484.2 km
Semi-major
6,861.2 km
B*
5.4663e-4
RAAN
104.5343°
Arg perigee
232.8483°
Mean anomaly
127.2217°
Rev number
5,948

§ Raw data

STARLINK-341231 63891U 25095B   26145.19113775  .00014813  00000+0  54663-3 0  99932 63891  42.9989 104.5343 0001659 232.8483 127.2217 15.27585323 59480

JSON: /api/v1/satellites/63891 · /tle

For live sub-satellite position, see the globe view (requires WebGL).

§ Visibility from observer

Set your observer location to see the next 7 days of passes ≥ 10°. The values pass through the URL so the page stays shareable.

No JS? Fill the form by hand. The geolocation button needs JavaScript.